C6006 KPIE-KPIE

Flight info

Callsign C6006
Flight time 0h 36m
Altitude 5000
Route VFR W
Aircraft H60/L-SDFGHIRTUY/S

Departure

Time 2026-04-17 18:53
Airport St. Petersburg Clearwater International Airport (KPIE)

Arrival

Time 2026-04-17 19:30
Airport St. Petersburg Clearwater International Airport (KPIE)
Time Latitude Longitude Altitude Speed Heading
2026-04-17 18:44 27.91272 -82.69408 17 ft 0 kts 111°
2026-04-17 18:45 27.91271 -82.69407 17 ft 0 kts 109°
2026-04-17 18:45 27.91270 -82.69404 17 ft 3 kts 119°
2026-04-17 18:46 27.91233 -82.69346 17 ft 12 kts 100°
2026-04-17 18:46 27.91293 -82.69266 22 ft 17 kts 41°
2026-04-17 18:46 27.91414 -82.69150 118 ft 41 kts 40°
2026-04-17 18:46 27.91971 -82.69121 206 ft 121 kts 347°
2026-04-17 18:47 27.92888 -82.69417 352 ft 156 kts 341°
2026-04-17 18:47 27.93944 -82.69890 534 ft 165 kts 338°
2026-04-17 18:47 27.95009 -82.70373 407 ft 163 kts 338°
2026-04-17 18:47 27.96078 -82.70864 427 ft 171 kts 338°
2026-04-17 18:48 27.97158 -82.71367 452 ft 166 kts 338°
2026-04-17 18:48 27.98236 -82.71870 444 ft 168 kts 338°
2026-04-17 18:48 27.99314 -82.72373 441 ft 168 kts 338°
2026-04-17 18:48 28.00393 -82.72867 458 ft 167 kts 338°
2026-04-17 18:49 28.01477 -82.73348 472 ft 168 kts 338°
2026-04-17 18:49 28.02559 -82.73821 466 ft 165 kts 338°
2026-04-17 18:49 28.03640 -82.74299 465 ft 165 kts 338°
2026-04-17 18:49 28.04716 -82.74778 441 ft 166 kts 338°
2026-04-17 18:50 28.05795 -82.75255 445 ft 167 kts 338°
2026-04-17 18:50 28.06874 -82.75730 454 ft 167 kts 338°
2026-04-17 18:50 28.07951 -82.76210 427 ft 167 kts 338°
2026-04-17 18:50 28.09033 -82.76693 452 ft 167 kts 338°
2026-04-17 18:51 28.10105 -82.77176 496 ft 164 kts 338°
2026-04-17 18:51 28.11103 -82.77826 467 ft 169 kts 315°
2026-04-17 18:51 28.11823 -82.78827 463 ft 162 kts 309°
2026-04-17 18:51 28.12532 -82.79794 455 ft 157 kts 309°
2026-04-17 18:52 28.13246 -82.80759 473 ft 160 kts 309°
2026-04-17 18:52 28.13946 -82.81736 598 ft 153 kts 309°
2026-04-17 18:52 28.14705 -82.82581 351 ft 166 kts 316°
2026-04-17 18:52 28.15520 -82.83469 407 ft 166 kts 316°
2026-04-17 18:53 28.16343 -82.84366 420 ft 166 kts 316°
2026-04-17 18:53 28.17156 -82.85159 518 ft 155 kts 318°
2026-04-17 18:53 28.17997 -82.86005 564 ft 159 kts 318°
2026-04-17 18:53 28.18838 -82.86819 900 ft 154 kts 318°
2026-04-17 18:54 28.19689 -82.87625 859 ft 160 kts 320°
2026-04-17 18:54 28.20615 -82.88395 733 ft 174 kts 322°
2026-04-17 18:54 28.21575 -82.89203 1015 ft 169 kts 322°
2026-04-17 18:54 28.22536 -82.90015 303 ft 180 kts 322°
2026-04-17 18:55 28.23501 -82.90810 394 ft 141 kts 323°
2026-04-17 18:55 28.24253 -82.91396 765 ft 147 kts 323°
2026-04-17 18:55 28.25103 -82.92075 183 ft 127 kts 325°
2026-04-17 18:55 28.25864 -82.92713 735 ft 146 kts 321°
2026-04-17 18:56 28.26756 -82.93432 666 ft 170 kts 331°
2026-04-17 18:56 28.27791 -82.94027 461 ft 167 kts 332°
2026-04-17 18:56 28.28775 -82.94605 552 ft 158 kts 332°
2026-04-17 18:56 28.29750 -82.95153 561 ft 154 kts 332°
2026-04-17 18:57 28.30759 -82.95668 484 ft 175 kts 346°
2026-04-17 18:57 28.32005 -82.96012 190 ft 183 kts 349°
2026-04-17 18:57 28.33100 -82.96293 206 ft 161 kts 347°
2026-04-17 18:57 28.34191 -82.96604 210 ft 160 kts 345°
2026-04-17 18:58 28.35273 -82.96935 261 ft 157 kts 345°
2026-04-17 18:58 28.36231 -82.97155 484 ft 138 kts 346°
2026-04-17 18:58 28.37179 -82.97365 559 ft 133 kts 346°
2026-04-17 18:58 28.38079 -82.97549 583 ft 132 kts 347°
2026-04-17 18:59 28.38686 -82.98132 522 ft 105 kts 290°
2026-04-17 18:59 28.39139 -82.98589 353 ft 99 kts 356°
2026-04-17 18:59 28.39682 -82.98105 459 ft 107 kts 57°
2026-04-17 18:59 28.39379 -82.97494 268 ft 110 kts 195°
2026-04-17 19:00 28.38998 -82.97897 252 ft 46 kts 225°
2026-04-17 19:00 28.39031 -82.98080 168 ft 20 kts 205°
2026-04-17 19:00 28.39175 -82.98047 216 ft 8 kts 204°
2026-04-17 19:00 28.39123 -82.98115 184 ft 3 kts 202°
2026-04-17 19:01 28.39128 -82.98118 118 ft 2 kts 202°
2026-04-17 19:01 28.39137 -82.98143 132 ft 0 kts 202°
2026-04-17 19:01 28.39136 -82.98142 134 ft 0 kts 202°
2026-04-17 19:02 28.39135 -82.98142 136 ft 0 kts 202°
2026-04-17 19:03 28.39051 -82.98178 235 ft 43 kts 202°
2026-04-17 19:03 28.38544 -82.98575 210 ft 122 kts 235°
2026-04-17 19:03 28.38441 -82.99498 205 ft 121 kts 287°
2026-04-17 19:03 28.38876 -83.00312 195 ft 124 kts 309°
2026-04-17 19:04 28.39676 -83.00846 609 ft 142 kts 340°
2026-04-17 19:04 28.40667 -83.00661 924 ft 155 kts 20°
2026-04-17 19:04 28.41453 -82.99728 648 ft 179 kts 60°
2026-04-17 19:04 28.41715 -82.98332 665 ft 186 kts 91°
2026-04-17 19:05 28.41267 -82.96983 877 ft 180 kts 124°
2026-04-17 19:05 28.40618 -82.95792 882 ft 181 kts 123°
2026-04-17 19:05 28.39958 -82.94581 893 ft 179 kts 123°
2026-04-17 19:05 28.39291 -82.93377 894 ft 178 kts 123°
2026-04-17 19:06 28.38645 -82.92211 892 ft 178 kts 123°
2026-04-17 19:06 28.37987 -82.91005 896 ft 179 kts 123°
2026-04-17 19:06 28.37329 -82.89803 897 ft 176 kts 123°
2026-04-17 19:06 28.36670 -82.88620 895 ft 178 kts 123°
2026-04-17 19:07 28.36007 -82.87429 893 ft 180 kts 123°
2026-04-17 19:07 28.35345 -82.86237 893 ft 176 kts 123°
2026-04-17 19:07 28.34685 -82.85036 898 ft 178 kts 123°
2026-04-17 19:07 28.34023 -82.83851 898 ft 178 kts 123°
2026-04-17 19:08 28.33361 -82.82667 898 ft 182 kts 123°
2026-04-17 19:08 28.32689 -82.81457 897 ft 179 kts 123°
2026-04-17 19:08 28.32024 -82.80274 897 ft 180 kts 123°
2026-04-17 19:08 28.31362 -82.79072 897 ft 181 kts 123°
2026-04-17 19:09 28.30693 -82.77875 912 ft 174 kts 123°
2026-04-17 19:09 28.30040 -82.76729 911 ft 171 kts 123°
2026-04-17 19:09 28.29387 -82.75583 911 ft 173 kts 123°
2026-04-17 19:09 28.28732 -82.74430 910 ft 174 kts 123°
2026-04-17 19:10 28.28077 -82.73281 913 ft 175 kts 123°
2026-04-17 19:10 28.27351 -82.72178 914 ft 175 kts 127°
2026-04-17 19:10 28.26636 -82.71080 960 ft 173 kts 127°
2026-04-17 19:10 28.25919 -82.69992 968 ft 173 kts 127°
2026-04-17 19:11 28.25205 -82.68909 959 ft 172 kts 127°
2026-04-17 19:11 28.24733 -82.68190 933 ft 171 kts 127°
2026-04-17 19:11 28.24012 -82.67098 960 ft 172 kts 127°
2026-04-17 19:11 28.23293 -82.66013 971 ft 170 kts 127°
2026-04-17 19:12 28.22584 -82.64934 973 ft 171 kts 127°
2026-04-17 19:12 28.21872 -82.63849 968 ft 172 kts 127°
2026-04-17 19:12 28.21154 -82.62765 955 ft 171 kts 127°
2026-04-17 19:12 28.20435 -82.61675 954 ft 172 kts 127°
2026-04-17 19:13 28.19716 -82.60584 964 ft 174 kts 127°
2026-04-17 19:13 28.18999 -82.59483 1022 ft 173 kts 127°
2026-04-17 19:13 28.18285 -82.58399 988 ft 170 kts 127°
2026-04-17 19:13 28.17571 -82.57318 993 ft 173 kts 127°
2026-04-17 19:14 28.16857 -82.56222 987 ft 173 kts 127°
2026-04-17 19:14 28.16142 -82.55124 961 ft 172 kts 127°
2026-04-17 19:14 28.15430 -82.54025 1003 ft 173 kts 127°
2026-04-17 19:14 28.14715 -82.52925 990 ft 173 kts 127°
2026-04-17 19:15 28.14000 -82.51821 982 ft 174 kts 127°
2026-04-17 19:15 28.13290 -82.50727 968 ft 173 kts 127°
2026-04-17 19:15 28.12578 -82.49632 982 ft 172 kts 127°
2026-04-17 19:15 28.11862 -82.48534 983 ft 173 kts 127°
2026-04-17 19:16 28.11049 -82.47598 967 ft 166 kts 149°
2026-04-17 19:16 28.09944 -82.47283 989 ft 169 kts 168°
2026-04-17 19:16 28.08773 -82.47008 972 ft 173 kts 168°
2026-04-17 19:16 28.07590 -82.46731 967 ft 174 kts 168°
2026-04-17 19:17 28.06387 -82.46444 976 ft 173 kts 168°
2026-04-17 19:17 28.05203 -82.46164 973 ft 174 kts 168°
2026-04-17 19:17 28.04035 -82.45893 933 ft 170 kts 171°
2026-04-17 19:17 28.02866 -82.45843 927 ft 163 kts 179°
2026-04-17 19:18 28.01765 -82.45813 928 ft 160 kts 178°
2026-04-17 19:18 28.00661 -82.45781 986 ft 158 kts 178°
2026-04-17 19:18 27.99578 -82.45755 967 ft 157 kts 179°
2026-04-17 19:18 27.98455 -82.45729 631 ft 164 kts 183°
2026-04-17 19:19 27.97324 -82.45917 454 ft 165 kts 197°
2026-04-17 19:19 27.96182 -82.46280 432 ft 173 kts 197°
2026-04-17 19:19 27.95078 -82.46568 274 ft 143 kts 186°
2026-04-17 19:19 27.94296 -82.46293 447 ft 106 kts 143°
2026-04-17 19:20 27.94124 -82.45594 484 ft 65 kts 141°
2026-04-17 19:20 27.93948 -82.45727 154 ft 98 kts 247°
2026-04-17 19:20 27.93800 -82.46584 444 ft 120 kts 220°
2026-04-17 19:20 27.93103 -82.46907 631 ft 67 kts 108°
2026-04-17 19:21 27.93278 -82.46447 314 ft 92 kts 24°
2026-04-17 19:21 27.93906 -82.46103 111 ft 63 kts 29°
2026-04-17 19:21 27.93907 -82.45967 42 ft 5 kts 36°
2026-04-17 19:21 27.93912 -82.45963 26 ft 1 kts 39°
2026-04-17 19:22 27.93913 -82.45962 14 ft 0 kts 39°
2026-04-17 19:24 27.93913 -82.45963 18 ft 2 kts 37°
2026-04-17 19:24 27.93941 -82.46035 87 ft 18 kts 233°
2026-04-17 19:24 27.93677 -82.46195 253 ft 87 kts 196°
2026-04-17 19:25 27.92873 -82.46437 356 ft 142 kts 194°
2026-04-17 19:25 27.91899 -82.46989 139 ft 166 kts 211°
2026-04-17 19:25 27.90935 -82.47587 204 ft 161 kts 211°
2026-04-17 19:25 27.89978 -82.48183 209 ft 158 kts 211°
2026-04-17 19:26 27.89017 -82.48780 234 ft 156 kts 211°
2026-04-17 19:26 27.88079 -82.49415 251 ft 156 kts 220°
2026-04-17 19:26 27.87536 -82.50392 220 ft 144 kts 256°
2026-04-17 19:26 27.87551 -82.51519 216 ft 156 kts 275°
2026-04-17 19:27 27.87644 -82.52829 216 ft 175 kts 275°
2026-04-17 19:27 27.87741 -82.54231 203 ft 182 kts 275°
2026-04-17 19:27 27.87850 -82.55650 208 ft 184 kts 275°
2026-04-17 19:27 27.87955 -82.57106 207 ft 184 kts 275°
2026-04-17 19:28 27.88063 -82.58554 208 ft 185 kts 275°
2026-04-17 19:28 27.88169 -82.59997 207 ft 185 kts 275°
2026-04-17 19:28 27.88258 -82.61465 209 ft 190 kts 275°
2026-04-17 19:28 27.88491 -82.62768 239 ft 152 kts 289°
2026-04-17 19:29 27.88842 -82.63926 252 ft 159 kts 293°
2026-04-17 19:29 27.89251 -82.65088 244 ft 157 kts 295°
2026-04-17 19:29 27.89707 -82.66225 364 ft 158 kts 297°
2026-04-17 19:29 27.90140 -82.67330 425 ft 157 kts 297°
2026-04-17 19:30 27.90609 -82.68426 308 ft 142 kts 300°
2026-04-17 19:30 27.91095 -82.69191 65 ft 85 kts 311°
2026-04-17 19:30 27.91293 -82.69418 42 ft 7 kts 327°
2026-04-17 19:30 27.91288 -82.69430 30 ft 3 kts 39°
2026-04-17 19:31 27.91291 -82.69427 23 ft 1 kts 40°
2026-04-17 19:31 27.91297 -82.69419 21 ft 1 kts 38°